Surface/Precipitation History
02/23/2017 21:35  to  2/24/2017 21:35
Change End Date:
Date/Time
(MST)
Sf
Temp Chem Water Layer Surface Precipitation
Sfc Pvt Sub Frz Factor Pct Dpth DpthThk IcePct Cond Salin FI Type Intens Accum Rate
02/24/2017 21:31 Ice Warning 23.9F - 33F 32F 30 0% - - 100% 0 mhos 8 - None None - -
02/24/2017 21:23 Ice Warning 23.9F - 33F 32F 35 0% - - 100% 0 mhos 8 - None None - -
02/24/2017 21:16 Ice Warning 23.9F - 33F 32F 30 0% - - 100% 0 mhos 7 - None None - -
02/24/2017 21:13 Ice Warning 23.7F - 33F 32F 35 0% - - 100% 0 mhos 7 - None None - -
02/24/2017 21:03 Ice Warning 23.5F - 33F 32F 35 0% - - 100% 0 mhos 7 - None None - -
02/24/2017 21:01 Ice Warning 23.5F - 33F 32F 35 0% - - 100% 0 mhos 7 - None None - -
02/24/2017 20:53 Ice Warning 23.5F - 33F 32F 35 0% - - 100% 0 mhos 7 - None None - -
02/24/2017 20:46 Ice Warning 23.7F - 33F 32F 35 0% - - 100% 0 mhos 7 - None None - -
02/24/2017 20:43 Ice Warning 23.7F - 33F 32F 35 0% - - 100% 0 mhos 7 - None None - -
02/24/2017 20:33 Ice Warning 24.3F - 33F 32F 35 0% - - 100% 0 mhos 7 - None None - -
02/24/2017 20:31 Ice Warning 24.3F - 33F 32F 35 0% - - 100% 0 mhos 6 - None None - -
02/24/2017 20:23 Ice Warning 24.6F - 33F 32F 40 0% - - 100% 0 mhos 6 - None None - -
02/24/2017 20:16 Ice Warning 24.6F - 33F 32F 35 0% - - 100% 0 mhos 6 - None None - -
02/24/2017 20:13 Ice Warning 24.6F - 33F 32F 35 0% - - 100% 0 mhos 6 - None None - -
02/24/2017 20:03 Ice Warning 25.2F - 33F 32F 40 0% - - 100% 0 mhos 6 - None None - -
Date/Time
(MST)
Sf
Temp Chem Water Layer Surface Precipitation
Sfc Pvt Sub Frz Factor Pct Dpth DpthThk IcePct Cond Salin FI Type Intens Accum Rate
02/24/2017 20:01 Ice Warning 25.3F - 33F 32F 35 0% - - 100% 0 mhos 6 - None None - -
02/24/2017 19:53 Ice Warning 25.7F - 33F 32F 40 0% - - 100% 0 mhos 6 - None None - -
02/24/2017 19:46 Ice Warning 26.1F - 33F 32F 40 0% - - 100% 0 mhos 5 - None None - -
02/24/2017 19:43 Ice Warning 26.1F - 33F 32F 40 0% - - 100% 0 mhos 5 - None None - -
02/24/2017 19:33 Ice Warning 26.8F - 33F 32F 35 0% - - 100% 0 mhos 4 - None None - -
02/24/2017 19:31 Ice Warning 27.0F - 33F 32F 35 0% - - 100% 0 mhos 4 - None None - -
02/24/2017 19:23 Ice Warning 27.3F - 33F 32F 35 0% - - 100% 0 mhos 4 - None None - -
02/24/2017 19:16 Ice Warning 28.0F - 33F 32F 35 0% - - 100% 0 mhos 4 - None None - -
02/24/2017 19:13 Ice Warning 28.2F - 33F 32F 35 0% - - 100% 0 mhos 4 - None None - -
02/24/2017 19:03 Ice Warning 29.3F - 33F 32F 30 0% - - 100% 0 mhos 3 - None None - -
02/24/2017 19:01 Ice Warning 29.5F - 33F 32F 30 0% - - 100% 0 mhos 3 - None None - -
02/24/2017 18:53 Ice Warning 30.2F - 33F 32F 30 0% - - 100% 0 mhos 3 - None None - -
02/24/2017 18:46 Ice Warning 30.9F - 33F 32F 25 0% - - 100% 0 mhos 3 - None None - -
02/24/2017 18:43 Ice Warning 31.3F - 33F 32F 30 0% - - 100% 0 mhos 3 - None None - -
02/24/2017 18:33 Wet 32.4F - 33F 32F 25 0% 0.10 in - 0% 0 mhos 3 - None None - -
Date/Time
(MST)
Sf
Temp Chem Water Layer Surface Precipitation
Sfc Pvt Sub Frz Factor Pct Dpth DpthThk IcePct Cond Salin FI Type Intens Accum Rate
02/24/2017 18:31 Wet 32.5F - 33F 32F 25 0% 0.10 in - 0% 0 mhos 3 - None None - -
02/24/2017 18:23 Wet 32.9F - 33F 32F 20 0% 0.10 in - 0% 0 mhos 2 - None None - -
02/24/2017 18:16 Wet 33.4F - 33F 32F 20 0% 0.20 in - 0% 0 mhos 2 - None None - -
02/24/2017 18:12 Wet 33.6F - 33F 32F 20 0% 0.20 in - 0% 0 mhos 2 - None None - -
02/24/2017 18:02 Wet 34.2F - 33F 32F 10 0% 0.40 in - 0% 0 mhos 1 - None None - -
02/24/2017 18:01 Wet 34.3F - 33F 32F 10 0% 0.50 in - 0% 0 mhos 1 - None None - -
02/24/2017 17:52 Wet 34.9F - 33F 32F 5 0% 0.40 in - 0% 0 mhos 1 - None None - -
02/24/2017 17:46 Wet 35.4F - 33F 32F 5 0% 0.00 in - 0% 0 mhos 1 - None None - -
02/24/2017 17:42 Wet 35.6F - 33F 32F 5 0% 0.00 in - 0% 0 mhos 0 - None None - -
02/24/2017 17:32 Wet 36.1F - 33F 32F 5 0% 0.00 in - 0% 0 mhos 0 - None None - -
02/24/2017 17:31 Wet 36.1F - 33F 32F 5 0% 0.00 in - 0% 0 mhos 0 - None None - -
02/24/2017 17:22 Wet 36.3F - 33F 32F 5 0% 0.00 in - 0% 0 mhos 0 - None None - -
02/24/2017 17:16 Wet 36.7F - 33F 32F 5 0% 0.00 in - 0% 0 mhos 0 - None None - -
02/24/2017 17:12 Wet 37.0F - 33F 32F 5 0% 0.00 in - 0% 0 mhos 0 - None None - -
02/24/2017 17:02 Wet 38.5F - 33F 32F 5 0% 0.00 in - 0% 0 mhos 0 - None None - -
Date/Time
(MST)
Sf
Temp Chem Water Layer Surface Precipitation
Sfc Pvt Sub Frz Factor Pct Dpth DpthThk IcePct Cond Salin FI Type Intens Accum Rate
02/24/2017 17:01 Wet 38.7F - 33F 32F 5 0% 0.00 in - 0% 0 mhos 0 - None None - -
02/24/2017 16:52 Wet 40.6F - 33F 32F 5 0% 0.00 in - 0% 0 mhos 0 - None None - -
02/24/2017 16:46 Wet 42.4F - 33F 32F 5 0% 0.00 in - 0% 0 mhos 0 - None None - -
02/24/2017 16:42 Wet 43.3F - 33F 32F 5 0% 0.00 in - 0% 0 mhos 0 - None None - -
02/24/2017 16:32 Wet 47.7F - 33F 32F 5 0% 0.00 in - 0% 0 mhos 0 - None None - -
02/24/2017 16:31 Wet 48.2F - 33F 32F 5 0% 0.00 in - 0% 0 mhos 0 - None None - -
02/24/2017 16:22 Wet 47.7F - 32F 32F 5 0% 0.00 in - 0% 0 mhos 0 - None None - -
02/24/2017 16:16 Wet 46.4F - 32F 32F 5 0% 0.00 in - 0% 0 mhos 0 - None None - -
02/24/2017 16:12 Wet 43.9F - 32F 32F 5 0% 0.00 in - 0% 0 mhos 0 - None None - -
02/24/2017 16:02 Wet 42.8F - 32F 32F 5 0% 0.00 in - 0% 0 mhos 0 - None None - -
02/24/2017 16:01 Wet 43.2F - 32F 32F 5 0% 0.00 in - 0% 0 mhos 0 - None None - -
02/24/2017 15:52 Wet 42.3F - 32F 32F 5 0% 0.00 in - 0% 0 mhos 0 - None None - -
02/24/2017 15:46 Wet 41.5F - 32F 32F 5 0% 0.00 in - 0% 0 mhos 0 - None None - -
02/24/2017 15:42 Wet 41.2F - 32F 32F 5 0% 0.00 in - 0% 0 mhos 0 - None None - -
02/24/2017 15:32 Wet 41.2F - 32F 32F 5 0% 0.00 in - 0% 0 mhos 0 - None None - -
Date/Time
(MST)
Sf
Temp Chem Water Layer Surface Precipitation
Sfc Pvt Sub Frz Factor Pct Dpth DpthThk IcePct Cond Salin FI Type Intens Accum Rate
02/24/2017 15:31 Wet 41.2F - 32F 32F 5 0% 0.00 in - 0% 0 mhos 0 - None None - -
02/24/2017 15:22 Wet 41.9F - 32F 32F 5 0% 0.00 in - 0% 0 mhos 0 - None None - -
02/24/2017 15:16 Wet 42.6F - 32F 32F 5 0% 0.00 in - 0% 0 mhos 0 - None None - -
02/24/2017 15:12 Wet 43.0F - 32F 32F 5 0% 0.00 in - 0% 0 mhos 0 - None None - -
02/24/2017 15:02 Wet 43.2F - 32F 32F 5 0% 0.00 in - 0% 0 mhos 0 - None None - -
02/24/2017 15:01 Wet 42.8F - 32F 32F 5 0% 0.00 in - 0% 0 mhos 0 - None None - -
02/24/2017 14:51 Wet 43.0F - 32F 32F 5 0% 0.00 in - 0% 0 mhos 0 - None None - -
02/24/2017 14:46 Wet 43.3F - 32F 32F 5 0% 0.00 in - 0% 0 mhos 0 - None None - -
02/24/2017 14:41 Wet 43.5F - 32F 32F 5 0% 0.00 in - 0% 0 mhos 0 - None None - -
02/24/2017 14:31 Wet 45.0F - 32F 32F 5 0% 0.00 in - 0% 0 mhos 0 - None None - -
02/24/2017 14:31 Wet 45.0F - 32F 32F 5 0% 0.00 in - 0% 0 mhos 0 - None None - -
02/24/2017 14:21 Wet 46.2F - 32F 32F 5 0% 0.00 in - 0% 0 mhos 0 - None None - -
02/24/2017 14:16 Wet 47.3F - 32F 32F 5 0% 0.00 in - 0% 0 mhos 0 - None None - -
02/24/2017 14:11 Wet 44.8F - 32F 32F 5 0% 0.00 in - 0% 0 mhos 0 - None None - -
02/24/2017 14:01 Wet 43.9F - 32F 32F 5 0% 0.00 in - 0% 0 mhos 1 - None None - -
Date/Time
(MST)
Sf
Temp Chem Water Layer Surface Precipitation
Sfc Pvt Sub Frz Factor Pct Dpth DpthThk IcePct Cond Salin FI Type Intens Accum Rate
02/24/2017 14:01 Wet 44.2F - 32F 32F 5 0% 0.00 in - 0% 0 mhos 1 - None None - -
02/24/2017 13:51 Wet 43.5F - 32F 32F 5 0% 0.00 in - 0% 0 mhos 2 - None None - -
02/24/2017 13:46 Wet 43.3F - 32F 32F 5 0% 0.00 in - 0% 0 mhos 2 - None None - -
02/24/2017 13:41 Wet 43.7F - 32F 32F 5 0% 0.00 in - 0% 0 mhos 3 - None None - -
02/24/2017 13:31 Wet 44.6F - 32F 32F 5 0% 0.00 in - 0% 0 mhos 14 - None None - -
02/24/2017 13:31 Wet 44.6F - 32F 32F 5 0% 0.00 in - 0% 0 mhos 14 - None None - -
02/24/2017 13:21 Wet 47.8F - 32F 32F 5 0% 0.00 in - 0% 0 mhos 0 - None None - -
02/24/2017 13:16 Wet 50.4F - 32F 32F 5 0% 0.00 in - 0% 0 mhos 0 - None None - -
02/24/2017 13:11 Wet 52.7F - 32F 32F 5 0% 0.00 in - 0% 0 mhos 0 - None None - -
02/24/2017 13:01 Wet 56.1F - 32F 32F 5 0% 0.00 in - 0% 0 mhos 0 - None None - -
02/24/2017 13:01 Wet 56.1F - 32F 32F 5 0% 0.00 in - 0% 0 mhos 0 - None None - -
02/24/2017 12:51 Wet 45.9F - 32F 32F 5 0% 0.00 in - 0% 0 mhos 0 - None None - -
02/24/2017 12:46 Wet 45.9F - 32F 32F 5 0% 0.00 in - 0% 0 mhos 0 - None None - -
02/24/2017 12:41 Wet 46.2F - 32F 32F 5 0% 0.00 in - 0% 0 mhos 0 - None None - -
02/24/2017 12:31 Wet 45.1F - 32F 32F 5 0% 0.00 in - 0% 0 mhos 0 - None None - -
Date/Time
(MST)
Sf
Temp Chem Water Layer Surface Precipitation
Sfc Pvt Sub Frz Factor Pct Dpth DpthThk IcePct Cond Salin FI Type Intens Accum Rate
02/24/2017 12:31 Wet 45.1F - 32F 32F 5 0% 0.00 in - 0% 0 mhos 0 - None None - -
02/24/2017 12:21 Wet 48.7F - 32F 32F 5 0% 0.00 in - 0% 0 mhos 0 - None None - -
02/24/2017 12:16 Wet 51.4F - 32F 32F 5 0% 0.00 in - 0% 0 mhos 0 - None None - -
02/24/2017 12:11 Wet 53.6F - 32F 32F 5 0% 0.00 in - 0% 0 mhos 1 - None None - -
02/24/2017 12:01 Wet 52.0F - 32F 32F 5 0% 0.00 in - 0% 0 mhos 2 - None None - -
02/24/2017 12:01 Wet 52.0F - 32F 32F 5 0% 0.00 in - 0% 0 mhos 2 - None None - -
02/24/2017 11:51 Error 46.2F - 32F - - - - - - 0 mhos 2 - None None - -
02/24/2017 11:46 Wet 44.8F - 32F 32F 30 0% 0.10 in - 0% 0 mhos 3 - None None - -
02/24/2017 11:41 Wet 43.5F - 32F 32F 35 0% 0.10 in - 0% 0 mhos 4 - None None - -
02/24/2017 11:31 Wet 43.5F - 32F 32F 45 0% 0.00 in - 0% 0 mhos 14 - None None - -
02/24/2017 11:30 Wet 43.5F - 32F 32F 45 0% 0.00 in - 0% 0 mhos 14 - None None - -
02/24/2017 11:20 Wet 41.5F - 32F 32F 60 0% 0.00 in - 0% 0 mhos 28 - None None - -
02/24/2017 11:16 Wet 41.0F - 32F 32F 65 0% 0.00 in - 0% 0 mhos 32 - None None - -
02/24/2017 11:10 Wet 40.3F - 32F 32F 75 0% 0.00 in - 0% 0 mhos 37 - None None - -
02/24/2017 11:01 Wet 39.9F - 32F 32F 75 0% 0.00 in - 0% 1 mhos 50 - None None - -
Date/Time
(MST)
Sf
Temp Chem Water Layer Surface Precipitation
Sfc Pvt Sub Frz Factor Pct Dpth DpthThk IcePct Cond Salin FI Type Intens Accum Rate
02/24/2017 11:00 Wet 39.9F - 32F 32F 75 0% 0.00 in - 0% 1 mhos 50 - None None - -
02/24/2017 10:50 Wet 38.1F - 32F 32F 90 0% 0.00 in - 0% 1 mhos 58 - None None - -
02/24/2017 10:46 Wet 37.4F - 32F 32F 95 0% 0.00 in - 0% 1 mhos 64 - None None - -
02/24/2017 10:40 Wet 36.9F - 32F 32F 95 0% 0.00 in - 0% 1 mhos 71 - None None - -
02/24/2017 10:31 Wet 36.1F - 32F 32F 95 0% 0.00 in - 0% 1 mhos 103 - None None - -
02/24/2017 10:30 Wet 36.1F - 32F 32F 95 0% 0.00 in - 0% 1 mhos 103 - None None - -
02/24/2017 10:20 Wet 36.1F - 32F 32F 95 1% 0.00 in - 0% 3 mhos 329 - None None - -
02/24/2017 10:16 Wet 35.1F - 32F 31F 95 2% 0.00 in - 0% 5 mhos 502 - None None - -
02/24/2017 10:10 Wet 35.2F - 32F 31F 95 3% 0.00 in - 0% 6 mhos 668 - None None - -
02/24/2017 10:01 Wet 32.5F - 32F 31F 95 3% 0.00 in - 0% 8 mhos 865 - None None - -
02/24/2017 10:00 Wet 32.5F - 32F 31F 95 3% 0.00 in - 0% 8 mhos 865 - None None - -
02/24/2017 09:50 Wet 32.5F - 32F 31F 95 4% 0.00 in - 0% 9 mhos 1006 - None None - -
02/24/2017 09:46 Wet 32.5F - 32F 31F 95 4% 0.00 in - 0% 10 mhos 1073 - None None - -
02/24/2017 09:40 Chemically Wet 31.6F - 32F 31F 95 4% 0.00 in - 0% 10 mhos 1125 - None None - -
02/24/2017 09:31 Chemically Wet 30.7F - 32F 31F 95 5% 0.00 in - 0% 11 mhos 1174 - None None - -
Date/Time
(MST)
Sf
Temp Chem Water Layer Surface Precipitation
Sfc Pvt Sub Frz Factor Pct Dpth DpthThk IcePct Cond Salin FI Type Intens Accum Rate
02/24/2017 09:30 Chemically Wet 30.7F - 32F 31F 95 5% 0.00 in - 0% 11 mhos 1174 - None None - -
02/24/2017 09:20 Chemically Wet 30.2F - 32F 31F 95 5% - - 33% 11 mhos 1231 - Yes - - -
02/24/2017 09:16 Chemically Wet 29.8F - 32F 31F 95 5% - - 43% 11 mhos 1227 - Yes - - -
02/24/2017 09:10 Chemically Wet 29.7F - 32F 31F 95 5% - - 47% 11 mhos 1228 - Yes - - -
02/24/2017 09:01 Chemically Wet 28.8F - 32F 31F 95 5% - - 62% 11 mhos 1248 - Yes - - -
02/24/2017 09:00 Chemically Wet 28.6F - 32F 31F 95 5% - - 63% 11 mhos 1248 - Yes - - -
02/24/2017 08:50 Chemically Wet 28.0F - 32F 31F 95 5% - - 68% 11 mhos 1284 - Yes - - -
02/24/2017 08:46 Chemically Wet 27.9F - 32F 31F 95 5% - - 70% 11 mhos 1258 - Yes - - -
02/24/2017 08:40 Chemically Wet 27.5F - 32F 31F 95 5% - - 74% 10 mhos 1201 - Yes - - -
02/24/2017 08:31 Chemically Wet 27.3F - 32F 31F 95 4% - - 75% 10 mhos 1158 - Yes - - -
02/24/2017 08:30 Chemically Wet 27.3F - 32F 31F 95 4% - - 76% 10 mhos 1153 - Yes - - -
02/24/2017 08:20 Chemically Wet 27.0F - 32F 31F 95 4% - - 82% 8 mhos 922 - Yes - - -
02/24/2017 08:16 Chemically Wet 26.8F - 32F 30F 95 6% - - 70% 14 mhos 1621 - Yes - - -
02/24/2017 08:09 Chemically Wet 26.6F - 32F 30F 95 6% - - 73% 13 mhos 1478 - Yes - - -
02/24/2017 08:01 Chemically Wet 26.2F - 32F 30F 95 5% - - 76% 12 mhos 1427 - Yes - - -
Date/Time
(MST)
Sf
Temp Chem Water Layer Surface Precipitation
Sfc Pvt Sub Frz Factor Pct Dpth DpthThk IcePct Cond Salin FI Type Intens Accum Rate
02/24/2017 07:59 Chemically Wet 26.2F - 32F 30F 95 6% - - 72% 14 mhos 1616 - Yes - - -
02/24/2017 07:49 Chemically Wet 26.4F - 32F 30F 95 6% - - 73% 13 mhos 1554 - Yes - - -
02/24/2017 07:46 Chemically Wet 26.2F - 32F 30F 95 6% - - 74% 13 mhos 1539 - Yes - - -
02/24/2017 07:39 Chemically Wet 26.1F - 32F 31F 95 5% - - 77% 12 mhos 1409 - Yes - - -
02/24/2017 07:31 Chemically Wet 26.1F - 32F 31F 95 5% - - 80% 10 mhos 1216 - Yes - - -
02/24/2017 07:29 Chemically Wet 25.9F - 32F 31F 95 4% - - 82% 10 mhos 1140 - Yes - - -
02/24/2017 07:19 Ice Warning 26.6F - 32F 31F 95 2% - - 90% 5 mhos 545 - Yes - - -
02/24/2017 07:16 Ice Warning 26.4F - 32F 32F 95 1% - - 97% 1 mhos 164 - Yes - - -
02/24/2017 07:09 Ice Warning 26.2F - 32F 32F 95 1% - - 97% 2 mhos 181 - Yes - - -
02/24/2017 07:01 Ice Warning 26.2F - 32F 32F 95 1% - - 97% 2 mhos 196 - Yes - - -
02/24/2017 06:59 Ice Warning 26.4F - 32F 32F 95 1% - - 96% 2 mhos 211 - Yes - - -
02/24/2017 06:49 Ice Warning 26.2F - 32F 31F 95 3% - - 88% 6 mhos 724 - Yes - - -
02/24/2017 06:46 Ice Warning 26.4F - 32F 31F 95 2% - - 93% 4 mhos 425 - Yes - - -
02/24/2017 06:39 Ice Warning 26.1F - 32F 32F 95 2% - - 93% 3 mhos 407 - Yes - - -
02/24/2017 06:31 Ice Warning 26.4F - 32F 32F 95 1% - - 93% 3 mhos 386 - Yes - - -
Date/Time
(MST)
Sf
Temp Chem Water Layer Surface Precipitation
Sfc Pvt Sub Frz Factor Pct Dpth DpthThk IcePct Cond Salin FI Type Intens Accum Rate
02/24/2017 06:29 Ice Warning 26.4F - 32F 32F 95 1% - - 97% 1 mhos 165 - Yes - - -
02/24/2017 06:19 Ice Warning 26.4F - 32F 32F 95 0% - - 98% 1 mhos 96 - Yes - - -
02/24/2017 06:16 Ice Warning 26.4F - 32F 32F 95 0% - - 99% 1 mhos 80 - Yes - - -
02/24/2017 06:09 Ice Warning 26.2F - 32F 32F 95 0% - - 99% 1 mhos 69 - Yes - - -
02/24/2017 06:01 Ice Warning 26.2F - 32F 32F 95 0% - - 99% 0 mhos 58 - Yes - - -
02/24/2017 05:59 Ice Warning 26.2F - 32F 32F 95 0% - - 99% 0 mhos 54 - Yes - - -
02/24/2017 05:49 Ice Warning 26.2F - 32F 32F 95 0% - - 99% 0 mhos 58 - Yes - - -
02/24/2017 05:46 Ice Warning 26.1F - 32F 32F 95 0% - - 99% 0 mhos 51 - Yes - - -
02/24/2017 05:39 Ice Warning 26.1F - 32F 32F 95 0% - - 99% 0 mhos 52 - Yes - - -
02/24/2017 05:31 Ice Warning 26.2F - 32F 32F 95 0% - - 99% 0 mhos 45 - Yes - - -
02/24/2017 05:29 Ice Warning 26.4F - 33F 32F 95 0% - - 99% 0 mhos 42 - Yes - - -
02/24/2017 05:19 Ice Warning 26.6F - 33F 32F 95 0% - - 99% 0 mhos 47 - Yes - - -
02/24/2017 05:16 Ice Warning 26.6F - 33F 32F 95 0% - - 99% 0 mhos 46 - Yes - - -
02/24/2017 05:09 Ice Warning 26.4F - 33F 32F 95 0% - - 99% 0 mhos 37 - Yes - - -
02/24/2017 05:01 Ice Warning 26.4F - 33F 32F 95 0% - - 99% 0 mhos 34 - Yes - - -
Date/Time
(MST)
Sf
Temp Chem Water Layer Surface Precipitation
Sfc Pvt Sub Frz Factor Pct Dpth DpthThk IcePct Cond Salin FI Type Intens Accum Rate
02/24/2017 04:58 Ice Warning 26.4F - 33F 32F 95 0% - - 99% 0 mhos 35 - Yes - - -
02/24/2017 04:48 Ice Warning 26.4F - 33F 32F 90 0% - - 99% 0 mhos 40 - Yes - - -
02/24/2017 04:46 Ice Warning 26.4F - 33F 32F 95 0% - - 99% 0 mhos 35 - Yes - - -
02/24/2017 04:38 Ice Warning 26.1F - 33F 32F 95 0% - - 99% 0 mhos 37 - Yes - - -
02/24/2017 04:31 Ice Warning 25.9F - 33F 32F 95 0% - - 99% 0 mhos 41 - None None - -
02/24/2017 04:28 Ice Warning 25.7F - 33F 32F 85 0% - - 99% 0 mhos 41 - None None - -
02/24/2017 04:18 Ice Warning 25.7F - 33F 32F 95 0% - - 99% 0 mhos 44 - Yes - - -
02/24/2017 04:16 Ice Warning 25.7F - 33F 32F 80 0% - - 99% 0 mhos 45 - Yes - - -
02/24/2017 04:08 Ice Warning 25.7F - 33F 32F 90 0% - - 99% 0 mhos 49 - Yes - - -
02/24/2017 04:01 Ice Warning 25.7F - 33F 32F 95 0% - - 99% 0 mhos 51 - Yes - - -
02/24/2017 03:58 Ice Warning 25.7F - 33F 32F 85 0% - - 99% 0 mhos 53 - Yes - - -
02/24/2017 03:48 Ice Warning 25.7F - 33F 32F 95 0% - - 99% 0 mhos 56 - Yes - - -
02/24/2017 03:46 Ice Warning 25.7F - 33F 32F 95 0% - - 99% 1 mhos 61 - None None - -
02/24/2017 03:38 Ice Warning 25.2F - 33F 32F 95 0% - - 99% 0 mhos 54 - None None - -
02/24/2017 03:31 Ice Warning 24.8F - 33F 32F 95 0% - - 99% 0 mhos 56 - None None - -
Date/Time
(MST)
Sf
Temp Chem Water Layer Surface Precipitation
Sfc Pvt Sub Frz Factor Pct Dpth DpthThk IcePct Cond Salin FI Type Intens Accum Rate
02/24/2017 03:28 Ice Warning 24.8F - 33F 32F 95 0% - - 99% 0 mhos 55 - None None - -
02/24/2017 03:18 Ice Warning 25.0F - 33F 32F 95 0% - - 99% 0 mhos 55 - None None - -
02/24/2017 03:16 Ice Warning 25.0F - 33F 32F 95 0% - - 99% 0 mhos 56 - None None - -
02/24/2017 03:08 Ice Warning 25.0F - 33F 32F 95 0% - - 99% 0 mhos 59 - None None - -
02/24/2017 03:01 Ice Warning 25.5F - 33F 32F 95 0% - - 99% 1 mhos 61 - None None - -
02/24/2017 02:58 Ice Warning 25.5F - 33F 32F 95 0% - - 99% 1 mhos 62 - None None - -
02/24/2017 02:48 Ice Warning 26.1F - 33F 32F 95 0% - - 99% 1 mhos 64 - None None - -
02/24/2017 02:46 Ice Warning 26.1F - 33F 32F 95 0% - - 99% 1 mhos 65 - None None - -
02/24/2017 02:38 Ice Warning 26.2F - 33F 32F 95 0% - - 99% 1 mhos 66 - None None - -
02/24/2017 02:31 Ice Warning 26.4F - 33F 32F 95 0% - - 99% 1 mhos 68 - None None - -
02/24/2017 02:28 Ice Warning 26.4F - 33F 32F 95 0% - - 99% 1 mhos 68 - None None - -
02/24/2017 02:18 Ice Warning 26.6F - 33F 32F 95 0% - - 99% 1 mhos 70 - None None - -
02/24/2017 02:16 Ice Warning 26.4F - 33F 32F 95 0% - - 99% 1 mhos 70 - None None - -
02/24/2017 02:08 Ice Warning 26.4F - 33F 32F 95 0% - - 99% 1 mhos 71 - None None - -
02/24/2017 02:01 Ice Warning 26.6F - 33F 32F 95 0% - - 99% 1 mhos 72 - None None - -
Date/Time
(MST)
Sf
Temp Chem Water Layer Surface Precipitation
Sfc Pvt Sub Frz Factor Pct Dpth DpthThk IcePct Cond Salin FI Type Intens Accum Rate
02/24/2017 01:58 Ice Warning 26.6F - 33F 32F 95 0% - - 99% 1 mhos 71 - None None - -
02/24/2017 01:48 Ice Warning 27.0F - 33F 32F 95 0% - - 99% 1 mhos 71 - None None - -
02/24/2017 01:46 Ice Warning 27.0F - 33F 32F 95 0% - - 99% 1 mhos 70 - None None - -
02/24/2017 01:37 Ice Warning 27.0F - 33F 32F 95 0% - - 99% 0 mhos 48 - None None - -
02/24/2017 01:31 Ice Warning 27.1F - 33F 32F 95 0% - - 99% 0 mhos 47 - None None - -
02/24/2017 01:27 Ice Warning 27.1F - 33F 32F 95 0% - - 99% 0 mhos 45 - Yes - - -
02/24/2017 01:17 Ice Warning 27.5F - 33F 32F 95 0% - - 99% 0 mhos 38 - None None - -
02/24/2017 01:16 Ice Warning 27.5F - 33F 32F 95 0% - - 99% 0 mhos 36 - None None - -
02/24/2017 01:07 Ice Warning 27.9F - 33F 32F 95 0% - - 99% 0 mhos 30 - Yes - - -
02/24/2017 01:01 Ice Warning 27.9F - 33F 32F 95 0% - - 99% 0 mhos 28 - Yes - - -
02/24/2017 00:57 Ice Warning 27.9F - 33F 32F 95 0% - - 99% 0 mhos 24 - Yes - - -
02/24/2017 00:47 Ice Warning 27.9F - 33F 32F 95 0% - - 99% 0 mhos 23 - Yes - - -
02/24/2017 00:46 Ice Warning 27.9F - 33F 32F 95 0% - - 99% 0 mhos 22 - Yes - - -
02/24/2017 00:37 Ice Warning 28.0F - 33F 32F 80 0% - - 100% 0 mhos 14 - Yes - - -
02/24/2017 00:31 Ice Warning 28.2F - 33F 32F 85 0% - - 100% 0 mhos 8 - Yes - - -
Date/Time
(MST)
Sf
Temp Chem Water Layer Surface Precipitation
Sfc Pvt Sub Frz Factor Pct Dpth DpthThk IcePct Cond Salin FI Type Intens Accum Rate
02/24/2017 00:27 Ice Warning 28.2F - 33F 32F 75 0% - - 100% 0 mhos 3 - Yes - - -
02/24/2017 00:17 Ice Warning 28.2F - 33F 32F 35 0% - - 100% 0 mhos 1 - None None - -
02/24/2017 00:16 Ice Warning 28.2F - 33F 32F 35 0% - - 100% 0 mhos 1 - None None - -
02/24/2017 00:07 Ice Warning 28.2F - 33F 32F 30 0% - - 100% 0 mhos 1 - None None - -
02/24/2017 00:01 Ice Warning 28.4F - 33F 32F 30 0% - - 100% 0 mhos 1 - None None - -
02/23/2017 23:57 Ice Warning 28.6F - 33F 32F 25 0% - - 100% 0 mhos 1 - Yes - - -
02/23/2017 23:47 Ice Warning 28.9F - 33F 32F 25 0% - - 100% 0 mhos 1 - None None - -
02/23/2017 23:46 Ice Warning 28.9F - 33F 32F 25 0% - - 100% 0 mhos 1 - None None - -
02/23/2017 23:37 Ice Warning 29.1F - 33F 32F 25 0% - - 100% 0 mhos 1 - None None - -
02/23/2017 23:31 Ice Warning 29.1F - 33F 32F 25 0% - - 100% 0 mhos 1 - None None - -
02/23/2017 23:27 Ice Warning 29.1F - 34F 32F 25 0% - - 100% 0 mhos 1 - None None - -
02/23/2017 23:17 Ice Warning 29.3F - 34F 32F 30 0% - - 100% 0 mhos 1 - None None - -
02/23/2017 23:16 Ice Warning 29.3F - 34F 32F 30 0% - - 100% 0 mhos 1 - None None - -
02/23/2017 23:07 Ice Warning 29.3F - 34F 32F 25 0% - - 100% 0 mhos 1 - None None - -
02/23/2017 23:01 Ice Warning 29.5F - 34F 32F 25 0% - - 100% 0 mhos 1 - None None - -
Date/Time
(MST)
Sf
Temp Chem Water Layer Surface Precipitation
Sfc Pvt Sub Frz Factor Pct Dpth DpthThk IcePct Cond Salin FI Type Intens Accum Rate
02/23/2017 22:57 Ice Warning 29.5F - 34F 32F 25 0% - - 100% 0 mhos 1 - None None - -
02/23/2017 22:47 Ice Warning 29.5F - 34F 32F 25 0% - - 100% 0 mhos 1 - None None - -
02/23/2017 22:46 Ice Warning 29.5F - 34F 32F 25 0% - - 100% 0 mhos 1 - None None - -
02/23/2017 22:37 Ice Warning 29.5F - 34F 32F 20 0% - - 100% 0 mhos 1 - None None - -
02/23/2017 22:31 Ice Warning 29.7F - 34F 32F 20 0% - - 100% 0 mhos 1 - None None - -
02/23/2017 22:27 Ice Warning 29.7F - 34F 32F 20 0% - - 100% 0 mhos 0 - None None - -
02/23/2017 22:16 Ice Warning 29.7F - 34F 32F 20 0% - - 100% 0 mhos 0 - None None - -
02/23/2017 22:16 Ice Warning 29.7F - 34F 32F 20 0% - - 100% 0 mhos 0 - None None - -
02/23/2017 22:06 Ice Warning 29.8F - 34F 32F 20 0% - - 100% 0 mhos 0 - None None - -
02/23/2017 22:01 Ice Warning 29.8F - 34F 32F 25 0% - - 100% 0 mhos 0 - None None - -
02/23/2017 21:56 Ice Warning 30.0F - 34F 32F 25 0% - - 100% 0 mhos 0 - None None - -
02/23/2017 21:46 Ice Warning 30.0F - 34F 32F 20 0% - - 100% 0 mhos 0 - None None - -
02/23/2017 21:46 Ice Warning 30.0F - 34F 32F 20 0% - - 100% 0 mhos 0 - None None - -
02/23/2017 21:36 Ice Warning 30.0F - 34F 32F 20 0% - - 100% 0 mhos 0 - None None - -
Change End Date:

Copyright © 1998-2015 Vaisala, Inc.
All Rights Reserved
Send comments about the data to:
SCAN Web ® is a registered trademark of Vaisala, Inc.
SCAN Web Version 6.0